Time,TemperatureF,DewpointF,PressureIn,WindDirection,WindDirectionDegrees,WindSpeedMPH,WindSpeedGustMPH,Humidity,HourlyPrecipIn,Conditions,Clouds,dailyrainin,SoftwareType,DateUTC
2013-02-02 00:00:00,24.0,13.9,30.12,SSW,197,5.0,7.0,65,0.00,BKN,,0.00,WeatherDisplay:10.37,2013-02-02 06:00:00,
2013-02-02 00:10:00,23.8,14.1,30.12,SSW,200,6.0,8.0,66,0.00,FEW,,0.00,WeatherDisplay:10.37,2013-02-02 06:10:00,
2013-02-02 00:15:00,23.8,14.1,30.12,SSW,204,6.0,9.0,66,0.00,FEW,,0.00,WeatherDisplay:10.37,2013-02-02 06:15:00,
2013-02-02 00:20:00,23.7,14.0,30.12,SSW,206,6.0,9.0,66,0.00,FEW,,0.00,WeatherDisplay:10.37,2013-02-02 06:20:00,
2013-02-02 00:25:00,23.6,13.9,30.12,SSW,207,6.0,8.0,66,0.00,FEW,,0.00,WeatherDisplay:10.37,2013-02-02 06:25:00,
2013-02-02 00:30:00,23.5,13.8,30.12,SSW,208,5.0,8.0,66,0.00,FEW,,0.00,WeatherDisplay:10.37,2013-02-02 06:30:00,
2013-02-02 00:40:00,23.6,13.9,30.12,SSW,205,6.0,8.0,66,0.00,FEW,,0.00,WeatherDisplay:10.37,2013-02-02 06:40:00,
2013-02-02 00:45:00,23.7,14.0,30.12,SSW,206,6.0,8.0,66,0.00,FEW,,0.00,WeatherDisplay:10.37,2013-02-02 06:45:00,
2013-02-02 00:55:00,23.6,13.9,30.11,SSW,205,5.0,7.0,66,0.00,FEW,,0.00,WeatherDisplay:10.37,2013-02-02 06:55:00,
2013-02-02 01:00:00,23.4,13.7,30.11,SSW,207,5.0,7.0,66,0.00,FEW,,0.00,WeatherDisplay:10.37,2013-02-02 07:00:00,
2013-02-02 01:05:00,23.4,14.0,30.11,SSW,208,6.0,7.0,67,0.00,OVC,,0.00,WeatherDisplay:10.37,2013-02-02 07:05:00,
2013-02-02 01:10:00,23.5,13.8,30.11,SSW,208,5.0,8.0,66,0.00,OVC,,0.00,WeatherDisplay:10.37,2013-02-02 07:10:00,
2013-02-02 01:15:00,23.6,14.2,30.11,SSW,209,6.0,7.0,67,0.00,OVC,,0.00,WeatherDisplay:10.37,2013-02-02 07:15:00,
2013-02-02 01:20:00,23.8,14.1,30.11,SSW,209,6.0,9.0,66,0.00,OVC,,0.00,WeatherDisplay:10.37,2013-02-02 07:20:00,
2013-02-02 01:25:00,23.7,14.0,30.11,SSW,213,5.0,7.0,66,0.00,OVC,,0.00,WeatherDisplay:10.37,2013-02-02 07:25:00,
2013-02-02 01:30:00,23.8,14.1,30.11,SW,218,3.0,8.0,66,0.00,OVC,,0.00,WeatherDisplay:10.37,2013-02-02 07:30:00,
2013-02-02 01:40:00,23.9,14.2,30.11,SW,226,2.0,5.0,66,0.00,OVC,,0.00,WeatherDisplay:10.37,2013-02-02 07:40:00,
2013-02-02 01:45:00,23.9,14.2,30.11,SW,230,2.0,5.0,66,0.00,OVC,,0.00,WeatherDisplay:10.37,2013-02-02 07:45:00,
2013-02-02 01:50:00,24.0,14.3,30.11,WSW,237,3.0,6.0,66,0.00,OVC,,0.00,WeatherDisplay:10.37,2013-02-02 07:50:00,
2013-02-02 01:55:00,24.0,14.6,30.11,SW,235,3.0,6.0,67,0.00,OVC,,0.00,WeatherDisplay:10.37,2013-02-02 07:55:00,
2013-02-02 02:00:00,24.3,14.9,30.11,WSW,248,3.0,7.0,67,0.00,OVC,,0.00,WeatherDisplay:10.37,2013-02-02 08:00:00,
2013-02-02 02:10:00,25.2,15.1,30.11,WSW,252,5.0,7.0,65,0.00,OVC,,0.00,WeatherDisplay:10.37,2013-02-02 08:10:00,
2013-02-02 02:15:00,25.6,15.4,30.11,WSW,251,3.0,8.0,65,0.00,OVC,,0.00,WeatherDisplay:10.37,2013-02-02 08:15:00,
2013-02-02 02:20:00,25.7,15.6,30.12,WSW,255,2.0,7.0,65,0.00,OVC,,0.00,WeatherDisplay:10.37,2013-02-02 08:20:00,
2013-02-02 02:25:00,25.8,15.6,30.12,WSW,252,3.0,6.0,65,0.00,OVC,,0.00,WeatherDisplay:10.37,2013-02-02 08:25:00,
2013-02-02 02:30:00,25.9,15.7,30.12,WSW,258,3.0,5.0,65,0.00,OVC,,0.00,WeatherDisplay:10.37,2013-02-02 08:30:00,
2013-02-02 02:40:00,26.1,16.3,30.12,WSW,258,3.0,7.0,66,0.00,OVC,,0.00,WeatherDisplay:10.37,2013-02-02 08:40:00,
2013-02-02 02:45:00,26.1,16.3,30.12,WSW,257,3.0,6.0,66,0.00,OVC,,0.00,WeatherDisplay:10.37,2013-02-02 08:45:00,
2013-02-02 02:50:00,26.1,15.9,30.12,WSW,255,3.0,6.0,65,0.00,OVC,,0.00,WeatherDisplay:10.37,2013-02-02 08:50:00,
2013-02-02 02:55:00,26.1,15.9,30.11,WSW,246,3.0,7.0,65,0.00,OVC,,0.00,WeatherDisplay:10.37,2013-02-02 08:55:00,
2013-02-02 03:00:00,26.1,15.6,30.12,WSW,248,5.0,9.0,64,0.00,OVC,,0.00,WeatherDisplay:10.37,2013-02-02 09:00:00,
2013-02-02 03:10:00,26.0,15.8,30.12,WSW,253,5.0,8.0,65,0.00,OVC,,0.00,WeatherDisplay:10.37,2013-02-02 09:10:00,
2013-02-02 03:15:00,26.0,15.5,30.12,WSW,248,5.0,9.0,64,0.00,OVC,,0.00,WeatherDisplay:10.37,2013-02-02 09:15:00,
2013-02-02 03:20:00,26.1,15.9,30.12,WSW,247,5.0,8.0,65,0.00,OVC,,0.00,WeatherDisplay:10.37,2013-02-02 09:20:00,
2013-02-02 03:25:00,26.2,16.0,30.12,WSW,245,5.0,8.0,65,0.00,OVC,,0.00,WeatherDisplay:10.37,2013-02-02 09:25:00,
2013-02-02 03:30:00,26.3,16.1,30.12,WSW,249,5.0,7.0,65,0.00,OVC,,0.00,WeatherDisplay:10.37,2013-02-02 09:30:00,
2013-02-02 03:40:00,26.7,16.5,30.11,WSW,251,5.0,9.0,65,0.00,OVC,,0.00,WeatherDisplay:10.37,2013-02-02 09:40:00,
2013-02-02 03:45:00,26.9,16.7,30.11,WSW,256,5.0,8.0,65,0.00,OVC,,0.00,WeatherDisplay:10.37,2013-02-02 09:45:00,
2013-02-02 03:50:00,27.0,17.1,30.11,West,264,3.0,6.0,66,0.00,OVC,,0.00,WeatherDisplay:10.37,2013-02-02 09:50:00,
2013-02-02 03:55:00,27.0,17.1,30.12,West,260,3.0,6.0,66,0.00,OVC,,0.00,WeatherDisplay:10.37,2013-02-02 09:55:00,
2013-02-02 04:00:00,27.1,17.2,30.11,West,260,3.0,7.0,66,0.00,OVC,,0.00,WeatherDisplay:10.37,2013-02-02 10:00:00,
2013-02-02 04:10:00,27.1,17.2,30.12,West,274,5.0,6.0,66,0.00,OVC,,0.00,WeatherDisplay:10.37,2013-02-02 10:10:00,
2013-02-02 04:15:00,27.1,17.6,30.12,West,270,3.0,6.0,67,0.00,OVC,,0.00,WeatherDisplay:10.37,2013-02-02 10:15:00,
2013-02-02 04:20:00,27.1,17.2,30.12,West,270,5.0,7.0,66,0.00,OVC,,0.00,WeatherDisplay:10.37,2013-02-02 10:20:00,
2013-02-02 04:25:00,27.2,17.3,30.12,West,276,5.0,6.0,66,0.00,OVC,,0.00,WeatherDisplay:10.37,2013-02-02 10:25:00,
2013-02-02 04:30:00,27.1,17.2,30.12,West,280,3.0,7.0,66,0.00,OVC,,0.00,WeatherDisplay:10.37,2013-02-02 10:30:00,
2013-02-02 04:40:00,27.0,17.2,30.12,West,276,5.0,6.0,66,0.00,OVC,,0.00,WeatherDisplay:10.37,2013-02-02 10:40:00,
2013-02-02 04:45:00,27.0,17.1,30.12,West,276,5.0,7.0,66,0.00,OVC,,0.00,WeatherDisplay:10.37,2013-02-02 10:45:00,
2013-02-02 04:50:00,27.0,17.5,30.13,West,280,3.0,7.0,67,0.00,OVC,,0.00,WeatherDisplay:10.37,2013-02-02 10:50:00,
2013-02-02 05:00:00,26.8,17.3,30.13,WNW,283,3.0,5.0,67,0.00,OVC,,0.00,WeatherDisplay:10.37,2013-02-02 11:00:00,
2013-02-02 05:10:00,26.6,17.5,30.13,West,272,2.0,4.0,68,0.00,SCT,,0.00,WeatherDisplay:10.37,2013-02-02 11:10:00,
2013-02-02 05:15:00,26.5,17.7,30.13,WSW,255,2.0,5.0,69,0.00,SCT,,0.00,WeatherDisplay:10.37,2013-02-02 11:15:00,
2013-02-02 05:20:00,26.4,17.6,30.13,WSW,249,2.0,5.0,69,0.00,SCT,,0.00,WeatherDisplay:10.37,2013-02-02 11:20:00,
2013-02-02 05:25:00,26.4,17.9,30.13,WSW,258,2.0,4.0,70,0.00,SCT,,0.00,WeatherDisplay:10.37,2013-02-02 11:25:00,
2013-02-02 05:30:00,26.4,18.0,30.13,West,270,2.0,3.0,70,0.00,SCT,,0.00,WeatherDisplay:10.37,2013-02-02 11:30:00,
2013-02-02 05:40:00,26.6,18.1,30.13,West,277,2.0,4.0,70,0.00,SCT,,0.00,WeatherDisplay:10.37,2013-02-02 11:40:00,
2013-02-02 05:50:00,26.6,18.5,30.13,West,277,1.0,3.0,71,0.00,SCT,,0.00,WeatherDisplay:10.37,2013-02-02 11:50:00,
2013-02-02 06:00:00,26.6,18.5,30.13,West,277,1.0,3.0,71,0.00,SCT,,0.00,WeatherDisplay:10.37,2013-02-02 12:00:00,
2013-02-02 06:10:00,26.5,18.4,30.14,West,277,1.0,3.0,71,0.00,SCT,,0.00,WeatherDisplay:10.37,2013-02-02 12:10:00,
2013-02-02 06:15:00,26.3,18.5,30.14,West,268,2.0,4.0,72,0.00,SCT,,0.00,WeatherDisplay:10.37,2013-02-02 12:15:00,
2013-02-02 06:20:00,26.1,18.3,30.14,WSW,249,2.0,4.0,72,0.00,SCT,,0.00,WeatherDisplay:10.37,2013-02-02 12:20:00,
2013-02-02 06:25:00,26.0,18.2,30.14,WSW,238,2.0,4.0,72,0.00,SCT,,0.00,WeatherDisplay:10.37,2013-02-02 12:25:00,
2013-02-02 06:30:00,26.0,18.5,30.14,WSW,241,2.0,5.0,73,0.00,SCT,,0.00,WeatherDisplay:10.37,2013-02-02 12:30:00,
2013-02-02 06:40:00,26.1,18.7,30.14,WSW,254,2.0,5.0,73,0.00,SCT,,0.00,WeatherDisplay:10.37,2013-02-02 12:40:00,
2013-02-02 06:45:00,26.2,18.7,30.15,WSW,248,2.0,5.0,73,0.00,SCT,,0.00,WeatherDisplay:10.37,2013-02-02 12:45:00,
2013-02-02 06:50:00,26.2,18.7,30.15,WSW,240,2.0,5.0,73,0.00,SCT,,0.00,WeatherDisplay:10.37,2013-02-02 12:50:00,
2013-02-02 06:55:00,26.1,18.6,30.15,WSW,244,1.0,5.0,73,0.00,SCT,,0.00,WeatherDisplay:10.37,2013-02-02 12:55:00,
2013-02-02 07:00:00,26.1,18.6,30.15,WSW,252,1.0,4.0,73,0.00,SCT,,0.00,WeatherDisplay:10.37,2013-02-02 13:00:00,
2013-02-02 07:10:00,26.2,19.0,30.15,WSW,253,1.0,3.0,74,0.00,CLR,,0.00,WeatherDisplay:10.37,2013-02-02 13:10:00,
2013-02-02 07:15:00,26.3,19.1,30.15,WSW,253,1.0,4.0,74,0.00,CLR,,0.00,WeatherDisplay:10.37,2013-02-02 13:15:00,
2013-02-02 07:20:00,26.3,19.1,30.15,WSW,253,2.0,4.0,74,0.00,CLR,,0.00,WeatherDisplay:10.37,2013-02-02 13:20:00,
2013-02-02 07:25:00,26.2,19.0,30.15,WSW,253,1.0,3.0,74,0.00,CLR,,0.00,WeatherDisplay:10.37,2013-02-02 13:25:00,
2013-02-02 07:30:00,26.0,18.8,30.15,WSW,253,1.0,3.0,74,0.00,CLR,,0.00,WeatherDisplay:10.37,2013-02-02 13:30:00,
2013-02-02 07:40:00,25.8,19.0,30.15,WSW,253,2.0,4.0,75,0.00,CLR,,0.00,WeatherDisplay:10.37,2013-02-02 13:40:00,
2013-02-02 07:50:00,26.0,19.2,30.16,WSW,253,1.0,4.0,75,0.00,CLR,,0.00,WeatherDisplay:10.37,2013-02-02 13:50:00,
2013-02-02 07:55:00,26.0,19.2,30.16,WSW,253,1.0,3.0,75,0.00,CLR,,0.00,WeatherDisplay:10.37,2013-02-02 13:55:00,
2013-02-02 08:00:00,26.0,19.5,30.16,WSW,253,2.0,4.0,76,0.00,CLR,,0.00,WeatherDisplay:10.37,2013-02-02 14:00:00,
2013-02-02 08:05:00,26.0,19.5,30.17,WSW,253,2.0,3.0,76,0.00,FEW,,0.00,WeatherDisplay:10.37,2013-02-02 14:05:00,
2013-02-02 08:10:00,26.0,19.5,30.17,WSW,253,1.0,4.0,76,0.00,FEW,,0.00,WeatherDisplay:10.37,2013-02-02 14:10:00,
2013-02-02 08:15:00,26.2,19.7,30.16,WSW,253,1.0,4.0,76,0.00,FEW,,0.00,WeatherDisplay:10.37,2013-02-02 14:15:00,
2013-02-02 08:20:00,26.2,19.7,30.16,WSW,253,1.0,3.0,76,0.00,FEW,,0.00,WeatherDisplay:10.37,2013-02-02 14:20:00,
2013-02-02 08:30:00,26.4,20.2,30.16,WSW,254,2.0,6.0,77,0.00,FEW,,0.00,WeatherDisplay:10.37,2013-02-02 14:30:00,
2013-02-02 08:40:00,27.0,20.4,30.16,WSW,257,2.0,5.0,76,0.00,FEW,,0.00,WeatherDisplay:10.37,2013-02-02 14:40:00,
2013-02-02 08:45:00,27.4,20.8,30.16,West,264,3.0,4.0,76,0.00,FEW,,0.00,WeatherDisplay:10.37,2013-02-02 14:45:00,
2013-02-02 08:50:00,27.8,21.2,30.16,West,270,3.0,4.0,76,0.00,FEW,,0.00,WeatherDisplay:10.37,2013-02-02 14:50:00,
2013-02-02 08:55:00,28.2,21.6,30.16,West,271,3.0,4.0,76,0.00,FEW,,0.00,WeatherDisplay:10.37,2013-02-02 14:55:00,
2013-02-02 09:00:00,28.7,22.0,30.16,West,275,3.0,5.0,76,0.00,FEW,,0.00,WeatherDisplay:10.37,2013-02-02 15:00:00,
2013-02-02 09:10:00,29.5,22.6,30.16,WNW,283,6.0,10.0,75,0.00,CLR,,0.00,WeatherDisplay:10.37,2013-02-02 15:10:00,
2013-02-02 09:15:00,29.8,22.5,30.16,WNW,285,5.0,7.0,74,0.00,CLR,,0.00,WeatherDisplay:10.37,2013-02-02 15:15:00,
2013-02-02 09:20:00,30.0,22.7,30.16,WNW,284,3.0,7.0,74,0.00,CLR,,0.00,WeatherDisplay:10.37,2013-02-02 15:20:00,
2013-02-02 09:25:00,30.4,23.1,30.16,WNW,285,5.0,7.0,74,0.00,CLR,,0.00,WeatherDisplay:10.37,2013-02-02 15:25:00,
2013-02-02 09:30:00,30.8,23.5,30.16,WNW,293,5.0,8.0,74,0.00,CLR,,0.00,WeatherDisplay:10.37,2013-02-02 15:30:00,
2013-02-02 09:40:00,31.1,23.5,30.17,WNW,302,6.0,10.0,73,0.00,CLR,,0.00,WeatherDisplay:10.37,2013-02-02 15:40:00,
2013-02-02 09:50:00,31.5,23.5,30.17,NW,317,6.0,9.0,72,0.00,CLR,,0.00,WeatherDisplay:10.37,2013-02-02 15:50:00,
2013-02-02 10:00:00,31.7,23.4,30.17,NW,322,7.0,8.0,71,0.00,CLR,,0.00,WeatherDisplay:10.37,2013-02-02 16:00:00,
2013-02-02 10:10:00,32.6,24.9,30.17,NW,324,6.0,7.0,73,0.00,SCT,,0.00,WeatherDisplay:10.37,2013-02-02 16:10:00,
2013-02-02 10:15:00,32.5,24.1,30.17,NW,323,6.0,8.0,71,0.00,SCT,,0.00,WeatherDisplay:10.37,2013-02-02 16:15:00,
2013-02-02 10:20:00,32.8,24.4,30.18,NW,322,6.0,8.0,71,0.00,SCT,,0.00,WeatherDisplay:10.37,2013-02-02 16:20:00,
2013-02-02 10:25:00,32.8,24.4,30.18,NW,316,7.0,8.0,71,0.00,SCT,,0.00,WeatherDisplay:10.37,2013-02-02 16:25:00,
2013-02-02 10:30:00,32.8,24.5,30.18,NW,317,6.0,8.0,71,0.00,SCT,,0.00,WeatherDisplay:10.37,2013-02-02 16:30:00,
2013-02-02 10:40:00,33.1,24.3,30.19,NW,311,7.0,10.0,70,0.00,SCT,,0.00,WeatherDisplay:10.37,2013-02-02 16:40:00,
2013-02-02 10:45:00,33.4,25.0,30.19,NW,314,5.0,7.0,71,0.00,SCT,,0.00,WeatherDisplay:10.37,2013-02-02 16:45:00,
2013-02-02 10:50:00,33.6,24.9,30.18,NNW,327,7.0,8.0,70,0.00,SCT,,0.00,WeatherDisplay:10.37,2013-02-02 16:50:00,
2013-02-02 10:55:00,33.7,24.6,30.18,NW,321,6.0,8.0,69,0.00,SCT,,0.00,WeatherDisplay:10.37,2013-02-02 16:55:00,
2013-02-02 11:00:00,33.9,24.4,30.18,NW,316,5.0,6.0,68,0.00,SCT,,0.00,WeatherDisplay:10.37,2013-02-02 17:00:00,
2013-02-02 11:10:00,34.6,24.8,30.19,NW,322,6.0,8.0,67,0.00,FEW,,0.00,WeatherDisplay:10.37,2013-02-02 17:10:00,
2013-02-02 11:15:00,34.9,25.4,30.18,NW,323,5.0,8.0,68,0.00,FEW,,0.00,WeatherDisplay:10.37,2013-02-02 17:15:00,
2013-02-02 11:20:00,35.3,25.4,30.19,NW,316,5.0,8.0,67,0.00,FEW,,0.00,WeatherDisplay:10.37,2013-02-02 17:20:00,
2013-02-02 11:30:00,35.4,24.8,30.18,NW,309,3.0,6.0,65,0.00,FEW,,0.00,WeatherDisplay:10.37,2013-02-02 17:30:00,
2013-02-02 11:40:00,36.3,26.0,30.18,West,275,3.0,5.0,66,0.00,FEW,,0.00,WeatherDisplay:10.37,2013-02-02 17:40:00,
2013-02-02 11:50:00,37.0,26.7,30.17,WNW,283,5.0,9.0,66,0.00,FEW,,0.00,WeatherDisplay:10.37,2013-02-02 17:50:00,
2013-02-02 12:00:00,37.4,27.8,30.17,WNW,291,6.0,10.0,68,0.00,FEW,,0.00,WeatherDisplay:10.37,2013-02-02 18:00:00,
2013-02-02 12:10:00,37.8,28.2,30.17,WNW,293,5.0,10.0,68,0.00,CLR,,0.00,WeatherDisplay:10.37,2013-02-02 18:10:00,
2013-02-02 12:15:00,38.0,28.3,30.17,WNW,290,7.0,12.0,68,0.00,CLR,,0.00,WeatherDisplay:10.37,2013-02-02 18:15:00,
2013-02-02 12:20:00,38.1,28.5,30.16,WNW,297,7.0,12.0,68,0.00,CLR,,0.00,WeatherDisplay:10.37,2013-02-02 18:20:00,
2013-02-02 12:25:00,38.6,29.3,30.16,WNW,298,7.0,12.0,69,0.00,CLR,,0.00,WeatherDisplay:10.37,2013-02-02 18:25:00,
2013-02-02 12:30:00,38.8,29.5,30.15,NW,314,10.0,13.0,69,0.00,CLR,,0.00,WeatherDisplay:10.37,2013-02-02 18:30:00,
2013-02-02 12:40:00,39.5,30.9,30.15,WNW,302,10.0,14.0,71,0.00,CLR,,0.00,WeatherDisplay:10.37,2013-02-02 18:40:00,
2013-02-02 12:45:00,39.7,30.7,30.15,NW,310,9.0,13.0,70,0.00,CLR,,0.00,WeatherDisplay:10.37,2013-02-02 18:45:00,
2013-02-02 12:50:00,40.2,31.5,30.14,NW,317,7.0,12.0,71,0.00,CLR,,0.00,WeatherDisplay:10.37,2013-02-02 18:50:00,
2013-02-02 13:00:00,40.2,31.2,30.14,WNW,297,10.0,13.0,70,0.00,CLR,,0.00,WeatherDisplay:10.37,2013-02-02 19:00:00,
2013-02-02 13:10:00,40.5,31.5,30.14,WNW,301,7.0,12.0,70,0.00,CLR,,0.00,WeatherDisplay:10.37,2013-02-02 19:10:00,
2013-02-02 13:15:00,40.7,31.7,30.14,NW,307,10.0,13.0,70,0.00,CLR,,0.00,WeatherDisplay:10.37,2013-02-02 19:15:00,
2013-02-02 13:20:00,41.0,31.9,30.14,WNW,302,9.0,15.0,70,0.00,CLR,,0.00,WeatherDisplay:10.37,2013-02-02 19:20:00,
2013-02-02 13:25:00,41.1,32.1,30.14,NW,304,8.0,15.0,70,0.00,CLR,,0.00,WeatherDisplay:10.37,2013-02-02 19:25:00,
2013-02-02 13:30:00,41.3,31.9,30.14,NW,308,7.0,13.0,69,0.00,CLR,,0.00,WeatherDisplay:10.37,2013-02-02 19:30:00,
2013-02-02 13:40:00,41.8,32.4,30.14,WNW,303,7.0,12.0,69,0.00,CLR,,0.00,WeatherDisplay:10.37,2013-02-02 19:40:00,
2013-02-02 13:45:00,41.7,32.3,30.13,WNW,299,8.0,13.0,69,0.00,CLR,,0.00,WeatherDisplay:10.37,2013-02-02 19:45:00,
2013-02-02 13:50:00,41.9,32.5,30.13,WNW,303,7.0,12.0,69,0.00,CLR,,0.00,WeatherDisplay:10.37,2013-02-02 19:50:00,
2013-02-02 13:55:00,42.5,32.7,30.13,WNW,292,7.0,12.0,68,0.00,CLR,,0.00,WeatherDisplay:10.37,2013-02-02 19:55:00,
2013-02-02 14:00:00,42.7,32.5,30.13,WNW,293,7.0,12.0,67,0.00,CLR,,0.00,WeatherDisplay:10.37,2013-02-02 20:00:00,
2013-02-02 14:10:00,43.1,33.3,30.13,NW,308,7.0,9.0,68,0.00,CLR,,0.00,WeatherDisplay:10.37,2013-02-02 20:10:00,
2013-02-02 14:15:00,43.3,33.1,30.12,NW,305,7.0,10.0,67,0.00,CLR,,0.00,WeatherDisplay:10.37,2013-02-02 20:15:00,
2013-02-02 14:20:00,43.5,32.9,30.13,WNW,301,6.0,12.0,66,0.00,CLR,,0.00,WeatherDisplay:10.37,2013-02-02 20:20:00,
2013-02-02 14:25:00,43.6,33.4,30.12,NW,308,7.0,9.0,67,0.00,CLR,,0.00,WeatherDisplay:10.37,2013-02-02 20:25:00,
2013-02-02 14:30:00,43.7,33.5,30.12,NW,317,6.0,10.0,67,0.00,CLR,,0.00,WeatherDisplay:10.37,2013-02-02 20:30:00,
2013-02-02 14:40:00,44.0,33.4,30.12,WNW,300,7.0,10.0,66,0.00,CLR,,0.00,WeatherDisplay:10.37,2013-02-02 20:40:00,
2013-02-02 14:45:00,44.4,33.3,30.12,WNW,294,6.0,9.0,65,0.00,CLR,,0.00,WeatherDisplay:10.37,2013-02-02 20:45:00,
2013-02-02 14:50:00,44.5,33.5,30.12,WNW,293,7.0,10.0,65,0.00,CLR,,0.00,WeatherDisplay:10.37,2013-02-02 20:50:00,
2013-02-02 15:00:00,44.5,33.5,30.12,WNW,296,8.0,10.0,65,0.00,CLR,,0.00,WeatherDisplay:10.37,2013-02-02 21:00:00,
2013-02-02 15:10:00,45.1,33.6,30.11,WNW,296,6.0,10.0,64,0.00,CLR,,0.00,WeatherDisplay:10.37,2013-02-02 21:10:00,
2013-02-02 15:15:00,45.5,33.7,30.11,WNW,282,6.0,9.0,63,0.00,CLR,,0.00,WeatherDisplay:10.37,2013-02-02 21:15:00,
2013-02-02 15:20:00,46.0,33.3,30.11,West,269,7.0,8.0,61,0.00,CLR,,0.00,WeatherDisplay:10.37,2013-02-02 21:20:00,
2013-02-02 15:30:00,46.5,33.3,30.09,West,277,3.0,8.0,60,0.00,CLR,,0.00,WeatherDisplay:10.37,2013-02-02 21:30:00,
2013-02-02 15:40:00,46.7,33.1,30.10,West,267,7.0,9.0,59,0.00,CLR,,0.00,WeatherDisplay:10.37,2013-02-02 21:40:00,
2013-02-02 15:45:00,46.9,32.9,30.10,West,277,7.0,11.0,58,0.00,CLR,,0.00,WeatherDisplay:10.37,2013-02-02 21:45:00,
2013-02-02 15:50:00,46.8,32.8,30.10,WNW,283,7.0,12.0,58,0.00,CLR,,0.00,WeatherDisplay:10.37,2013-02-02 21:50:00,
2013-02-02 16:00:00,47.0,32.9,30.10,WNW,282,7.0,12.0,58,0.00,CLR,,0.00,WeatherDisplay:10.37,2013-02-02 22:00:00,
2013-02-02 16:05:00,47.1,33.1,30.10,WNW,283,5.0,12.0,58,0.00,CLR,,0.00,WeatherDisplay:10.37,2013-02-02 22:05:00,
2013-02-02 16:10:00,47.1,33.1,30.09,WNW,285,5.0,10.0,58,0.00,CLR,,0.00,WeatherDisplay:10.37,2013-02-02 22:10:00,
2013-02-02 16:15:00,47.1,32.2,30.09,West,280,8.0,12.0,56,0.00,CLR,,0.00,WeatherDisplay:10.37,2013-02-02 22:15:00,
2013-02-02 16:20:00,46.9,32.4,30.10,West,275,7.0,10.0,57,0.00,CLR,,0.00,WeatherDisplay:10.37,2013-02-02 22:20:00,
2013-02-02 16:25:00,46.8,32.4,30.09,West,276,6.0,10.0,57,0.00,CLR,,0.00,WeatherDisplay:10.37,2013-02-02 22:25:00,
2013-02-02 16:30:00,46.8,32.8,30.09,West,278,5.0,9.0,58,0.00,CLR,,0.00,WeatherDisplay:10.37,2013-02-02 22:30:00,
2013-02-02 16:35:00,46.8,32.4,30.09,West,280,7.0,10.0,57,0.00,CLR,,0.00,WeatherDisplay:10.37,2013-02-02 22:35:00,
2013-02-02 16:40:00,46.7,32.7,30.09,West,278,3.0,8.0,58,0.00,CLR,,0.00,WeatherDisplay:10.37,2013-02-02 22:40:00,
2013-02-02 16:45:00,46.7,32.7,30.09,WNW,282,3.0,7.0,58,0.00,CLR,,0.00,WeatherDisplay:10.37,2013-02-02 22:45:00,
2013-02-02 16:50:00,46.7,32.7,30.08,West,280,3.0,6.0,58,0.00,CLR,,0.00,WeatherDisplay:10.37,2013-02-02 22:50:00,
2013-02-02 16:55:00,46.7,32.3,30.08,West,278,5.0,8.0,57,0.00,CLR,,0.00,WeatherDisplay:10.37,2013-02-02 22:55:00,
2013-02-02 17:00:00,46.4,32.4,30.08,West,279,3.0,8.0,58,0.00,CLR,,0.00,WeatherDisplay:10.37,2013-02-02 23:00:00,
2013-02-02 17:10:00,45.9,32.4,30.08,West,271,5.0,7.0,59,0.00,CLR,,0.00,WeatherDisplay:10.37,2013-02-02 23:10:00,
2013-02-02 17:15:00,45.5,32.0,30.09,West,273,3.0,6.0,59,0.00,CLR,,0.00,WeatherDisplay:10.37,2013-02-02 23:15:00,
2013-02-02 17:20:00,45.1,32.0,30.08,West,276,3.0,5.0,60,0.00,CLR,,0.00,WeatherDisplay:10.37,2013-02-02 23:20:00,
2013-02-02 17:30:00,44.3,31.6,30.08,West,266,3.0,5.0,61,0.00,CLR,,0.00,WeatherDisplay:10.37,2013-02-02 23:30:00,
2013-02-02 17:40:00,43.5,31.3,30.08,WSW,257,2.0,4.0,62,0.00,CLR,,0.00,WeatherDisplay:10.37,2013-02-02 23:40:00,
2013-02-02 17:50:00,43.3,31.5,30.07,WSW,250,3.0,7.0,63,0.00,CLR,,0.00,WeatherDisplay:10.37,2013-02-02 23:50:00,
2013-02-02 17:55:00,43.1,31.4,30.07,WSW,250,5.0,6.0,63,0.00,CLR,,0.00,WeatherDisplay:10.37,2013-02-02 23:55:00,
2013-02-02 18:00:00,42.9,31.6,30.07,WSW,245,5.0,7.0,64,0.00,CLR,,0.00,WeatherDisplay:10.37,2013-02-03 00:00:00,
2013-02-02 18:10:00,42.2,31.3,30.07,WSW,243,3.0,7.0,65,0.00,CLR,,0.00,WeatherDisplay:10.37,2013-02-03 00:10:00,
2013-02-02 18:15:00,41.9,31.0,30.07,WSW,244,3.0,6.0,65,0.00,CLR,,0.00,WeatherDisplay:10.37,2013-02-03 00:15:00,
2013-02-02 18:20:00,41.7,31.2,30.07,WSW,242,3.0,6.0,66,0.00,CLR,,0.00,WeatherDisplay:10.37,2013-02-03 00:20:00,
2013-02-02 18:25:00,41.5,31.0,30.07,WSW,244,2.0,5.0,66,0.00,CLR,,0.00,WeatherDisplay:10.37,2013-02-03 00:25:00,
2013-02-02 18:30:00,41.1,30.6,30.07,SW,236,3.0,6.0,66,0.00,CLR,,0.00,WeatherDisplay:10.37,2013-02-03 00:30:00,
2013-02-02 18:40:00,40.5,30.4,30.07,SW,223,2.0,5.0,67,0.00,CLR,,0.00,WeatherDisplay:10.37,2013-02-03 00:40:00,
2013-02-02 18:45:00,40.4,30.7,30.07,SW,227,5.0,6.0,68,0.00,CLR,,0.00,WeatherDisplay:10.37,2013-02-03 00:45:00,
2013-02-02 18:50:00,40.4,30.7,30.07,SW,225,5.0,6.0,68,0.00,CLR,,0.00,WeatherDisplay:10.37,2013-02-03 00:50:00,
2013-02-02 18:55:00,40.4,30.6,30.07,SW,220,5.0,6.0,68,0.00,CLR,,0.00,WeatherDisplay:10.37,2013-02-03 00:55:00,
2013-02-02 19:00:00,40.3,30.9,30.07,SW,226,3.0,7.0,69,0.00,CLR,,0.00,WeatherDisplay:10.37,2013-02-03 01:00:00,
2013-02-02 19:05:00,40.5,31.1,30.07,WSW,239,5.0,9.0,69,0.00,CLR,,0.00,WeatherDisplay:10.37,2013-02-03 01:05:00,
2013-02-02 19:10:00,40.5,31.1,30.06,SW,226,5.0,8.0,69,0.00,CLR,,0.00,WeatherDisplay:10.37,2013-02-03 01:10:00,
2013-02-02 19:15:00,40.7,31.4,30.06,SW,226,6.0,10.0,69,0.00,CLR,,0.00,WeatherDisplay:10.37,2013-02-03 01:15:00,
2013-02-02 19:20:00,41.0,31.3,30.06,SW,222,7.0,8.0,68,0.00,CLR,,0.00,WeatherDisplay:10.37,2013-02-03 01:20:00,
2013-02-02 19:25:00,41.2,31.4,30.06,SW,219,5.0,9.0,68,0.00,CLR,,0.00,WeatherDisplay:10.37,2013-02-03 01:25:00,
2013-02-02 19:30:00,41.2,31.4,30.06,SW,216,6.0,10.0,68,0.00,CLR,,0.00,WeatherDisplay:10.37,2013-02-03 01:30:00,
2013-02-02 19:40:00,41.6,31.8,30.06,SW,228,6.0,9.0,68,0.00,CLR,,0.00,WeatherDisplay:10.37,2013-02-03 01:40:00,
2013-02-02 19:50:00,41.9,31.7,30.06,SW,224,7.0,10.0,67,0.00,CLR,,0.00,WeatherDisplay:10.37,2013-02-03 01:50:00,
2013-02-02 20:00:00,42.3,31.7,30.05,SW,221,7.0,12.0,66,0.00,CLR,,0.00,WeatherDisplay:10.37,2013-02-03 02:00:00,
2013-02-02 20:10:00,42.2,31.6,30.05,SW,215,8.0,12.0,66,0.00,OVC,,0.00,WeatherDisplay:10.37,2013-02-03 02:10:00,
2013-02-02 20:15:00,42.0,31.5,30.05,SW,221,6.0,12.0,66,0.00,OVC,,0.00,WeatherDisplay:10.37,2013-02-03 02:15:00,
2013-02-02 20:20:00,41.9,31.7,30.05,SW,224,7.0,10.0,67,0.00,OVC,,0.00,WeatherDisplay:10.37,2013-02-03 02:20:00,
2013-02-02 20:25:00,41.8,31.6,30.05,SW,224,5.0,12.0,67,0.00,OVC,,0.00,WeatherDisplay:10.37,2013-02-03 02:25:00,
2013-02-02 20:30:00,41.7,31.5,30.04,SW,224,6.0,9.0,67,0.00,OVC,,0.00,WeatherDisplay:10.37,2013-02-03 02:30:00,
2013-02-02 20:40:00,41.7,31.5,30.05,SW,231,6.0,10.0,67,0.00,OVC,,0.00,WeatherDisplay:10.37,2013-02-03 02:40:00,
2013-02-02 20:45:00,41.5,31.7,30.05,SW,235,6.0,10.0,68,0.00,OVC,,0.00,WeatherDisplay:10.37,2013-02-03 02:45:00,
2013-02-02 20:50:00,41.2,31.5,30.04,SW,233,6.0,10.0,68,0.00,OVC,,0.00,WeatherDisplay:10.37,2013-02-03 02:50:00,
2013-02-02 21:00:00,41.2,31.4,30.04,WSW,242,6.0,9.0,68,0.00,OVC,,0.00,WeatherDisplay:10.37,2013-02-03 03:00:00,
2013-02-02 21:10:00,41.7,31.5,30.04,WSW,252,6.0,12.0,67,0.00,CLR,,0.00,WeatherDisplay:10.37,2013-02-03 03:10:00,
2013-02-02 21:15:00,41.7,31.5,30.05,West,267,7.0,12.0,67,0.00,CLR,,0.00,WeatherDisplay:10.37,2013-02-03 03:15:00,
2013-02-02 21:20:00,41.7,31.5,30.06,West,281,8.0,12.0,67,0.00,CLR,,0.00,WeatherDisplay:10.37,2013-02-03 03:20:00,
2013-02-02 21:25:00,41.7,31.5,30.06,WNW,283,8.0,13.0,67,0.00,CLR,,0.00,WeatherDisplay:10.37,2013-02-03 03:25:00,
2013-02-02 21:30:00,41.9,31.7,30.07,WNW,285,9.0,14.0,67,0.00,CLR,,0.00,WeatherDisplay:10.37,2013-02-03 03:30:00,
2013-02-02 21:40:00,41.6,31.4,30.07,WNW,293,8.0,16.0,67,0.00,CLR,,0.00,WeatherDisplay:10.37,2013-02-03 03:40:00,
2013-02-02 21:45:00,41.5,31.4,30.08,WNW,294,8.0,15.0,67,0.00,CLR,,0.00,WeatherDisplay:10.37,2013-02-03 03:45:00,
2013-02-02 21:50:00,41.7,31.5,30.07,WNW,295,8.0,16.0,67,0.00,CLR,,0.00,WeatherDisplay:10.37,2013-02-03 03:50:00,
2013-02-02 21:55:00,41.6,31.1,30.08,WNW,295,8.0,12.0,66,0.00,CLR,,0.00,WeatherDisplay:10.37,2013-02-03 03:55:00,
2013-02-02 22:00:00,41.4,31.3,30.08,WNW,297,8.0,13.0,67,0.00,CLR,,0.00,WeatherDisplay:10.37,2013-02-03 04:00:00,
2013-02-02 22:10:00,41.0,30.9,30.08,WNW,298,6.0,10.0,67,0.00,CLR,,0.00,WeatherDisplay:10.37,2013-02-03 04:10:00,
2013-02-02 22:20:00,40.7,30.6,30.08,WNW,300,6.0,8.0,67,0.00,CLR,,0.00,WeatherDisplay:10.37,2013-02-03 04:20:00,
2013-02-02 22:25:00,40.3,30.6,30.08,WNW,299,6.0,8.0,68,0.00,CLR,,0.00,WeatherDisplay:10.37,2013-02-03 04:25:00,
2013-02-02 22:30:00,40.1,30.4,30.08,WNW,297,5.0,9.0,68,0.00,CLR,,0.00,WeatherDisplay:10.37,2013-02-03 04:30:00,
2013-02-02 22:40:00,39.4,30.1,30.08,WNW,299,5.0,8.0,69,0.00,CLR,,0.00,WeatherDisplay:10.37,2013-02-03 04:40:00,
2013-02-02 22:45:00,39.1,30.1,30.08,WNW,295,3.0,6.0,70,0.00,CLR,,0.00,WeatherDisplay:10.37,2013-02-03 04:45:00,
2013-02-02 22:50:00,38.9,29.9,30.08,WNW,295,2.0,7.0,70,0.00,CLR,,0.00,WeatherDisplay:10.37,2013-02-03 04:50:00,
2013-02-02 22:55:00,38.6,30.0,30.08,WNW,296,2.0,5.0,71,0.00,CLR,,0.00,WeatherDisplay:10.37,2013-02-03 04:55:00,
2013-02-02 23:00:00,38.3,29.7,30.08,WNW,292,3.0,6.0,71,0.00,CLR,,0.00,WeatherDisplay:10.37,2013-02-03 05:00:00,
2013-02-02 23:05:00,38.4,29.8,30.08,WNW,285,5.0,5.0,71,0.00,CLR,,0.00,WeatherDisplay:10.37,2013-02-03 05:05:00,
2013-02-02 23:10:00,38.4,29.8,30.09,WNW,286,3.0,5.0,71,0.00,CLR,,0.00,WeatherDisplay:10.37,2013-02-03 05:10:00,
2013-02-02 23:15:00,38.3,29.7,30.09,WNW,290,3.0,6.0,71,0.00,CLR,,0.00,WeatherDisplay:10.37,2013-02-03 05:15:00,
2013-02-02 23:20:00,38.1,29.5,30.09,WNW,297,3.0,6.0,71,0.00,CLR,,0.00,WeatherDisplay:10.37,2013-02-03 05:20:00,
2013-02-02 23:25:00,38.1,29.5,30.09,WNW,299,3.0,7.0,71,0.00,CLR,,0.00,WeatherDisplay:10.37,2013-02-03 05:25:00,
2013-02-02 23:30:00,38.0,29.4,30.09,WNW,299,3.0,5.0,71,0.00,CLR,,0.00,WeatherDisplay:10.37,2013-02-03 05:30:00,
2013-02-02 23:40:00,37.6,29.4,30.09,WNW,297,5.0,6.0,72,0.00,CLR,,0.00,WeatherDisplay:10.37,2013-02-03 05:40:00,
2013-02-02 23:45:00,37.6,29.4,30.09,WNW,295,2.0,5.0,72,0.00,CLR,,0.00,WeatherDisplay:10.37,2013-02-03 05:45:00,
2013-02-02 23:50:00,37.3,29.1,30.09,WNW,295,3.0,5.0,72,0.00,CLR,,0.00,WeatherDisplay:10.37,2013-02-03 05:50:00,
2013-02-02 23:55:00,37.1,28.9,30.09,WNW,293,2.0,4.0,72,0.00,CLR,,0.00,WeatherDisplay:10.37,2013-02-03 05:55:00,